| time (UTC) | temp F | wind direction | speed MPH | gust MPH | rain 1hr in | rain 24hr in | rain mn in | humidity % | barometer mb |
| 20260506124028 | 57 | 0 | 0.0 | 0.0 | 0.00 | 0.00 | 0.00 | 36 | 1014.8 |
| 20260506123528 | 58 | 0 | 0.0 | 0.0 | 0.00 | 0.00 | 0.00 | 37 | 1014.7 |
| 20260506123046 | 58 | 0 | 0.0 | 0.0 | 0.00 | 0.00 | 0.00 | 36 | 1014.7 |
| 20260506122529 | 58 | 0 | 0.0 | 0.0 | 0.00 | 0.00 | 0.00 | 36 | 1014.6 |
| 20260506122030 | 58 | 0 | 0.0 | 0.0 | 0.00 | 0.00 | 0.00 | 36 | 1014.6 |
| 20260506121548 | 58 | 0 | 0.0 | 0.0 | 0.00 | 0.00 | 0.00 | 36 | 1014.5 |
| 20260506121030 | 58 | 0 | 0.0 | 0.0 | 0.00 | 0.00 | 0.00 | 36 | 1014.5 |
| 20260506120529 | 59 | 0 | 0.0 | 0.0 | 0.00 | 0.00 | 0.00 | 37 | 1014.4 |
| 20260506120107 | 59 | 0 | 0.0 | 0.0 | 0.00 | 0.00 | 0.00 | 37 | 1014.4 |
| 20260506115529 | 59 | 0 | 0.0 | 0.0 | 0.00 | 0.00 | 0.00 | 37 | 1014.3 |
| 20260506115029 | 59 | 0 | 0.0 | 0.0 | 0.00 | 0.00 | 0.00 | 37 | 1014.3 |
| 20260506114547 | 59 | 0 | 0.0 | 0.0 | 0.00 | 0.00 | 0.00 | 37 | 1014.3 |
| 20260506114029 | 59 | 0 | 0.0 | 0.0 | 0.00 | 0.00 | 0.00 | 37 | 1014.2 |
| 20260506113532 | 59 | 0 | 0.0 | 0.0 | 0.00 | 0.00 | 0.00 | 38 | 1014.4 |
| 20260506113043 | 59 | 0 | 0.0 | 0.0 | 0.00 | 0.00 | 0.00 | 37 | 1014.4 |
| 20260506112529 | 59 | 0 | 0.0 | 0.0 | 0.00 | 0.00 | 0.00 | 37 | 1014.3 |
| 20260506112028 | 59 | 0 | 0.0 | 0.0 | 0.00 | 0.00 | 0.00 | 37 | 1014.3 |
| 20260506111541 | 59 | 0 | 0.0 | 0.0 | 0.00 | 0.00 | 0.00 | 37 | 1014.2 |
| 20260506111030 | 59 | 0 | 0.0 | 0.0 | 0.00 | 0.00 | 0.00 | 37 | 1014.2 |
| 20260506110529 | 59 | 0 | 0.0 | 0.0 | 0.00 | 0.00 | 0.00 | 37 | 1014.3 |
| 20260506110041 | 59 | 0 | 0.0 | 0.0 | 0.00 | 0.00 | 0.00 | 36 | 1014.3 |
| 20260506105531 | 59 | 0 | 0.0 | 0.0 | 0.00 | 0.00 | 0.00 | 36 | 1014.3 |
| 20260506105028 | 59 | 0 | 0.0 | 0.0 | 0.00 | 0.00 | 0.00 | 36 | 1014.3 |
| 20260506104544 | 59 | 0 | 0.0 | 0.0 | 0.00 | 0.00 | 0.00 | 35 | 1014.2 |
| 20260506104031 | 59 | 0 | 0.0 | 0.0 | 0.00 | 0.00 | 0.00 | 35 | 1014.3 |
| 20260506103530 | 59 | 0 | 0.0 | 0.0 | 0.00 | 0.00 | 0.00 | 36 | 1014.1 |
| 20260506103046 | 59 | 0 | 0.0 | 0.0 | 0.00 | 0.00 | 0.00 | 35 | 1014.1 |
| 20260506102529 | 59 | 0 | 0.0 | 0.0 | 0.00 | 0.00 | 0.00 | 35 | 1014.1 |
| 20260506102031 | 59 | 0 | 0.0 | 0.0 | 0.00 | 0.00 | 0.00 | 35 | 1014.1 |
| 20260506101542 | 59 | 0 | 0.0 | 0.0 | 0.00 | 0.00 | 0.00 | 35 | 1013.9 |
| 20260506101033 | 59 | 0 | 0.0 | 0.0 | 0.00 | 0.00 | 0.00 | 34 | 1013.8 |
| 20260506100531 | 59 | 0 | 0.0 | 0.0 | 0.00 | 0.00 | 0.00 | 34 | 1013.8 |
| 20260506100043 | 60 | 0 | 0.0 | 0.0 | 0.00 | 0.00 | 0.00 | 35 | 1013.7 |
| 20260506095531 | 60 | 0 | 0.0 | 0.0 | 0.00 | 0.00 | 0.00 | 33 | 1013.7 |
| 20260506095031 | 60 | 0 | 0.0 | 0.0 | 0.00 | 0.00 | 0.00 | 34 | 1013.8 |
| 20260506094545 | 60 | 0 | 0.0 | 0.0 | 0.00 | 0.00 | 0.00 | 34 | 1013.8 |
| 20260506094031 | 60 | 0 | 0.0 | 0.0 | 0.00 | 0.00 | 0.00 | 33 | 1013.8 |
| 20260506093531 | 60 | 0 | 0.0 | 0.0 | 0.00 | 0.00 | 0.00 | 33 | 1013.8 |
| 20260506093050 | 60 | 0 | 0.0 | 0.0 | 0.00 | 0.00 | 0.00 | 33 | 1013.7 |
| 20260506092531 | 60 | 0 | 0.0 | 0.0 | 0.00 | 0.00 | 0.00 | 33 | 1013.7 |
| 20260506092032 | 61 | 0 | 0.0 | 0.0 | 0.00 | 0.00 | 0.00 | 33 | 1013.7 |
| 20260506091545 | 61 | 0 | 0.0 | 0.0 | 0.00 | 0.00 | 0.00 | 33 | 1013.7 |
| 20260506091030 | 61 | 0 | 0.0 | 0.0 | 0.00 | 0.00 | 0.00 | 33 | 1013.7 |
| 20260506090531 | 61 | 0 | 0.0 | 0.0 | 0.00 | 0.00 | 0.00 | 32 | 1013.7 |
| 20260506090044 | 61 | 0 | 0.0 | 0.0 | 0.00 | 0.00 | 0.00 | 32 | 1013.6 |
| 20260506085530 | 61 | 0 | 0.0 | 0.0 | 0.00 | 0.00 | 0.00 | 32 | 1013.6 |
| 20260506085028 | 62 | 0 | 0.0 | 0.0 | 0.00 | 0.00 | 0.00 | 31 | 1013.7 |
| 20260506084541 | 62 | 0 | 0.0 | 0.0 | 0.00 | 0.00 | 0.00 | 31 | 1013.6 |
| 20260506084032 | 62 | 0 | 0.0 | 0.0 | 0.00 | 0.00 | 0.00 | 32 | 1013.6 |
| 20260506083532 | 62 | 0 | 0.0 | 0.0 | 0.00 | 0.00 | 0.00 | 32 | 1013.6 |
| 20260506083044 | 62 | 0 | 0.0 | 0.0 | 0.00 | 0.00 | 0.00 | 32 | 1013.6 |
| 20260506082531 | 62 | 0 | 0.0 | 0.0 | 0.00 | 0.00 | 0.00 | 31 | 1013.5 |
| 20260506082031 | 62 | 0 | 0.0 | 0.0 | 0.00 | 0.00 | 0.00 | 31 | 1013.6 |
| 20260506081550 | 62 | 0 | 0.0 | 0.0 | 0.00 | 0.00 | 0.00 | 31 | 1013.6 |
| 20260506081032 | 63 | 0 | 0.0 | 0.0 | 0.00 | 0.00 | 0.00 | 30 | 1013.6 |
| 20260506080532 | 63 | 0 | 0.0 | 0.0 | 0.00 | 0.00 | 0.00 | 30 | 1013.7 |
| 20260506073043 | 64 | 0 | 0.0 | 0.0 | 0.00 | 0.00 | 0.00 | 28 | 1013.7 |
| 20260506072527 | 64 | 0 | 0.0 | 0.0 | 0.00 | 0.00 | 0.00 | 29 | 1013.6 |
| 20260506072031 | 64 | 0 | 0.0 | 0.0 | 0.00 | 0.00 | 0.00 | 30 | 1013.6 |
| 20260506071548 | 64 | 0 | 0.0 | 0.0 | 0.00 | 0.00 | 0.00 | 30 | 1013.5 |
| 20260506071031 | 65 | 0 | 0.0 | 0.0 | 0.00 | 0.00 | 0.00 | 27 | 1013.4 |
| 20260506070531 | 65 | 0 | 0.0 | 0.0 | 0.00 | 0.00 | 0.00 | 29 | 1013.4 |
| 20260506070107 | 65 | 0 | 0.0 | 0.0 | 0.00 | 0.00 | 0.00 | 28 | 1013.3 |
| 20260506062028 | 66 | 0 | 0.0 | 0.0 | 0.00 | 0.00 | 0.00 | 27 | 1013.1 |
| 20260506061542 | 66 | 0 | 0.0 | 0.0 | 0.00 | 0.00 | 0.00 | 27 | 1013.3 |
| 20260506061031 | 66 | 0 | 0.0 | 0.0 | 0.00 | 0.00 | 0.00 | 27 | 1013.3 |
| 20260506060528 | 66 | 0 | 0.0 | 0.0 | 0.00 | 0.00 | 0.00 | 27 | 1013.2 |
| 20260506051031 | 68 | 0 | 0.0 | 0.0 | 0.00 | 0.00 | 0.00 | 26 | 1012.8 |
| 20260506050528 | 68 | 0 | 0.0 | 0.0 | 0.00 | 0.00 | 0.00 | 26 | 1012.7 |
| 20260506045031 | 68 | 0 | 0.0 | 0.0 | 0.00 | 0.00 | 0.00 | 25 | 1012.6 |
| 20260506044552 | 69 | 0 | 0.0 | 0.0 | 0.00 | 0.00 | 0.00 | 25 | 1012.5 |
| 20260506044031 | 69 | 0 | 0.0 | 0.0 | 0.00 | 0.00 | 0.00 | 25 | 1012.5 |
| 20260506043531 | 69 | 0 | 0.0 | 0.0 | 0.00 | 0.00 | 0.00 | 25 | 1012.5 |
| 20260506043048 | 69 | 0 | 0.0 | 0.0 | 0.00 | 0.00 | 0.00 | 24 | 1012.5 |
| 20260506042530 | 69 | 0 | 0.0 | 0.0 | 0.00 | 0.00 | 0.00 | 24 | 1012.4 |
| 20260506042031 | 69 | 0 | 0.0 | 0.0 | 0.00 | 0.00 | 0.00 | 25 | 1012.4 |
| 20260506041552 | 70 | 0 | 0.0 | 0.0 | 0.00 | 0.00 | 0.00 | 24 | 1012.4 |
| 20260506041028 | 70 | 0 | 0.0 | 0.0 | 0.00 | 0.00 | 0.00 | 23 | 1012.3 |
| 20260506040531 | 70 | 0 | 0.0 | 0.0 | 0.00 | 0.00 | 0.00 | 23 | 1012.2 |
| 20260506040046 | 70 | 0 | 0.0 | 0.0 | 0.00 | 0.00 | 0.00 | 23 | 1012.1 |
| 20260506035532 | 70 | 0 | 0.0 | 0.0 | 0.00 | 0.00 | 0.00 | 23 | 1012.1 |
| 20260506035030 | 70 | 0 | 0.0 | 0.0 | 0.00 | 0.00 | 0.00 | 23 | 1012.0 |
| 20260506034542 | 71 | 0 | 0.0 | 0.0 | 0.00 | 0.00 | 0.00 | 22 | 1012.0 |
| 20260506034030 | 71 | 0 | 0.0 | 0.0 | 0.00 | 0.00 | 0.00 | 22 | 1011.8 |
| 20260506033530 | 71 | 0 | 0.0 | 0.0 | 0.00 | 0.00 | 0.00 | 22 | 1011.9 |
| 20260506033040 | 71 | 0 | 0.0 | 0.0 | 0.00 | 0.00 | 0.00 | 22 | 1011.7 |
| 20260506032530 | 71 | 0 | 0.0 | 0.0 | 0.00 | 0.00 | 0.00 | 21 | 1011.7 |
| 20260506032031 | 71 | 0 | 0.0 | 0.0 | 0.00 | 0.00 | 0.00 | 21 | 1011.6 |
| 20260506031556 | 72 | 0 | 0.0 | 0.0 | 0.00 | 0.00 | 0.00 | 21 | 1011.5 |
| 20260506031029 | 72 | 0 | 0.0 | 0.0 | 0.00 | 0.00 | 0.00 | 21 | 1011.4 |
| 20260506030528 | 72 | 0 | 0.0 | 0.0 | 0.00 | 0.00 | 0.00 | 20 | 1011.4 |
| 20260506030105 | 72 | 0 | 0.0 | 0.0 | 0.00 | 0.00 | 0.00 | 20 | 1011.4 |
| 20260506025533 | 72 | 0 | 0.0 | 0.0 | 0.00 | 0.00 | 0.00 | 19 | 1011.3 |
| 20260506025031 | 73 | 0 | 0.0 | 0.0 | 0.00 | 0.00 | 0.00 | 19 | 1011.3 |
| 20260506024553 | 73 | 0 | 0.0 | 0.0 | 0.00 | 0.00 | 0.00 | 19 | 1011.2 |
| 20260506024032 | 73 | 0 | 0.0 | 0.0 | 0.00 | 0.00 | 0.00 | 19 | 1011.2 |
| 20260506023532 | 73 | 0 | 0.0 | 0.0 | 0.00 | 0.00 | 0.00 | 19 | 1011.1 |
| 20260506023042 | 73 | 0 | 0.0 | 1.0 | 0.00 | 0.00 | 0.00 | 19 | 1011.0 |
| 20260506022531 | 73 | 0 | 0.0 | 1.0 | 0.00 | 0.00 | 0.00 | 19 | 1011.0 |
| 20260506022031 | 74 | 229 | 0.0 | 0.0 | 0.00 | 0.00 | 0.00 | 19 | 1010.8 |
| 20260506021546 | 74 | 0 | 0.0 | 0.0 | 0.00 | 0.00 | 0.00 | 19 | 1010.8 |
| 20260506021027 | 74 | 0 | 0.0 | 0.0 | 0.00 | 0.00 | 0.00 | 18 | 1010.7 |
| 20260506020630 | 74 | 0 | 0.0 | 1.0 | 0.00 | 0.00 | 0.00 | 18 | 1010.7 |
| 20260506020046 | 75 | 0 | 0.0 | 1.0 | 0.00 | 0.00 | 0.00 | 18 | 1010.6 |
| 20260506015532 | 75 | 0 | 0.0 | 2.0 | 0.00 | 0.00 | 0.00 | 17 | 1010.5 |
| 20260506015033 | 75 | 0 | 0.0 | 2.0 | 0.00 | 0.00 | 0.00 | 17 | 1010.5 |
| 20260506014543 | 75 | 0 | 0.0 | 3.0 | 0.00 | 0.00 | 0.00 | 17 | 1010.4 |
| 20260506014032 | 76 | 0 | 0.0 | 3.0 | 0.00 | 0.00 | 0.00 | 17 | 1010.3 |
| 20260506013532 | 76 | 0 | 0.0 | 1.0 | 0.00 | 0.00 | 0.00 | 17 | 1010.4 |
| 20260506013046 | 76 | 0 | 0.0 | 2.0 | 0.00 | 0.00 | 0.00 | 17 | 1010.2 |
| 20260506012532 | 76 | 0 | 0.0 | 2.0 | 0.00 | 0.00 | 0.00 | 17 | 1010.3 |
| 20260506012032 | 77 | 0 | 0.0 | 4.0 | 0.00 | 0.00 | 0.00 | 17 | 1010.2 |
| 20260506011540 | 77 | 0 | 0.0 | 4.0 | 0.00 | 0.00 | 0.00 | 17 | 1010.3 |
| 20260506011032 | 77 | 0 | 0.0 | 2.0 | 0.00 | 0.00 | 0.00 | 16 | 1010.2 |
| 20260506010530 | 78 | 0 | 0.0 | 2.0 | 0.00 | 0.00 | 0.00 | 16 | 1010.1 |
| 20260506010045 | 78 | 0 | 0.0 | 2.0 | 0.00 | 0.00 | 0.00 | 16 | 1010.2 |
| 20260506005530 | 78 | 0 | 0.0 | 1.0 | 0.00 | 0.00 | 0.00 | 16 | 1010.0 |
| 20260506005034 | 78 | 0 | 0.0 | 1.0 | 0.00 | 0.00 | 0.00 | 16 | 1010.0 |
| 20260506004620 | 78 | 0 | 0.0 | 1.0 | 0.00 | 0.00 | 0.00 | 16 | 1010.0 |
| 20260506004033 | 79 | 0 | 0.0 | 1.0 | 0.00 | 0.00 | 0.00 | 15 | 1010.0 |
| 20260506003533 | 79 | 0 | 0.0 | 1.0 | 0.00 | 0.00 | 0.00 | 16 | 1009.9 |
| 20260506003045 | 79 | 0 | 0.0 | 3.0 | 0.00 | 0.00 | 0.00 | 16 | 1009.8 |
| 20260506002532 | 79 | 0 | 0.0 | 3.0 | 0.00 | 0.00 | 0.00 | 16 | 1009.8 |
| 20260506002034 | 79 | 0 | 0.0 | 1.0 | 0.00 | 0.00 | 0.00 | 16 | 1009.7 |
| 20260506001550 | 79 | 0 | 0.0 | 1.0 | 0.00 | 0.00 | 0.00 | 16 | 1009.7 |
| 20260506001033 | 78 | 0 | 0.0 | 1.0 | 0.00 | 0.00 | 0.00 | 16 | 1009.7 |
| 20260506000533 | 79 | 0 | 0.0 | 1.0 | 0.00 | 0.00 | 0.00 | 16 | 1009.6 |
| 20260506000051 | 79 | 0 | 0.0 | 1.0 | 0.00 | 0.00 | 0.00 | 17 | 1009.7 |
| 20260505235532 | 79 | 0 | 0.0 | 4.0 | 0.00 | 0.00 | 0.00 | 17 | 1009.6 |
| 20260505235032 | 78 | 0 | 0.0 | 4.0 | 0.00 | 0.00 | 0.00 | 17 | 1009.6 |
| 20260505234611 | 78 | 0 | 0.0 | 4.0 | 0.00 | 0.00 | 0.00 | 17 | 1009.6 |
| 20260505234032 | 78 | 0 | 0.0 | 2.0 | 0.00 | 0.00 | 0.00 | 17 | 1009.6 |
| 20260505233529 | 79 | 0 | 0.0 | 2.0 | 0.00 | 0.00 | 0.00 | 17 | 1009.6 |
| 20260505233045 | 79 | 277 | 0.0 | 2.0 | 0.00 | 0.00 | 0.00 | 17 | 1009.6 |
| 20260505232530 | 79 | 0 | 0.0 | 2.0 | 0.00 | 0.00 | 0.00 | 17 | 1009.5 |
| 20260505232031 | 79 | 0 | 0.0 | 2.0 | 0.00 | 0.00 | 0.00 | 17 | 1009.5 |
| 20260505231546 | 80 | 0 | 0.0 | 2.0 | 0.00 | 0.00 | 0.00 | 17 | 1009.6 |
| 20260505231032 | 80 | 0 | 0.0 | 2.0 | 0.00 | 0.00 | 0.00 | 16 | 1009.6 |
| 20260505230528 | 80 | 0 | 0.0 | 2.0 | 0.00 | 0.00 | 0.00 | 17 | 1009.6 |
| 20260505230047 | 80 | 0 | 0.0 | 2.0 | 0.00 | 0.00 | 0.00 | 17 | 1009.7 |
| 20260505225531 | 80 | 0 | 0.0 | 4.0 | 0.00 | 0.00 | 0.00 | 16 | 1009.7 |
| 20260505225033 | 80 | 0 | 0.0 | 4.0 | 0.00 | 0.00 | 0.00 | 17 | 1009.8 |
| 20260505224543 | 80 | 0 | 0.0 | 2.0 | 0.00 | 0.00 | 0.00 | 16 | 1009.7 |
| 20260505224032 | 80 | 0 | 0.0 | 4.0 | 0.00 | 0.00 | 0.00 | 17 | 1009.8 |
| 20260505223532 | 80 | 0 | 0.0 | 4.0 | 0.00 | 0.00 | 0.00 | 17 | 1009.8 |
| 20260505223100 | 80 | 0 | 0.0 | 2.0 | 0.00 | 0.00 | 0.00 | 17 | 1010.0 |
| 20260505222535 | 80 | 0 | 0.0 | 2.0 | 0.00 | 0.00 | 0.00 | 17 | 1010.0 |
| 20260505222030 | 81 | 0 | 0.0 | 4.0 | 0.00 | 0.00 | 0.00 | 17 | 1010.2 |
| 20260505221556 | 81 | 0 | 0.0 | 4.0 | 0.00 | 0.00 | 0.00 | 16 | 1010.3 |
| 20260505221031 | 81 | 0 | 0.0 | 1.0 | 0.00 | 0.00 | 0.00 | 17 | 1010.3 |
| 20260505220532 | 80 | 0 | 0.0 | 1.0 | 0.00 | 0.00 | 0.00 | 17 | 1010.3 |
| 20260505220050 | 80 | 0 | 0.0 | 2.0 | 0.00 | 0.00 | 0.00 | 18 | 1010.4 |
| 20260505215532 | 80 | 0 | 0.0 | 2.0 | 0.00 | 0.00 | 0.00 | 18 | 1010.6 |
| 20260505215032 | 80 | 0 | 0.0 | 1.0 | 0.00 | 0.00 | 0.00 | 18 | 1010.6 |
| 20260505214547 | 81 | 0 | 0.0 | 1.0 | 0.00 | 0.00 | 0.00 | 17 | 1010.6 |
| 20260505214032 | 81 | 0 | 0.0 | 3.0 | 0.00 | 0.00 | 0.00 | 17 | 1010.8 |
| 20260505213530 | 81 | 0 | 0.0 | 3.0 | 0.00 | 0.00 | 0.00 | 17 | 1010.7 |
| 20260505213041 | 81 | 196 | 0.0 | 3.0 | 0.00 | 0.00 | 0.00 | 17 | 1010.7 |
| 20260505212532 | 81 | 0 | 0.0 | 3.0 | 0.00 | 0.00 | 0.00 | 17 | 1010.7 |
| 20260505212030 | 81 | 0 | 0.0 | 2.0 | 0.00 | 0.00 | 0.00 | 17 | 1010.8 |
| 20260505211554 | 80 | 0 | 0.0 | 3.0 | 0.00 | 0.00 | 0.00 | 18 | 1010.9 |
| 20260505211030 | 80 | 254 | 0.0 | 3.0 | 0.00 | 0.00 | 0.00 | 18 | 1010.9 |
| 20260505210531 | 80 | 0 | 0.0 | 2.0 | 0.00 | 0.00 | 0.00 | 18 | 1011.1 |
| 20260505210046 | 80 | 0 | 0.0 | 2.0 | 0.00 | 0.00 | 0.00 | 18 | 1011.2 |
| 20260505205532 | 79 | 0 | 0.0 | 2.0 | 0.00 | 0.00 | 0.00 | 19 | 1011.1 |
| 20260505205030 | 79 | 227 | 0.0 | 1.0 | 0.00 | 0.00 | 0.00 | 19 | 1011.2 |
| 20260505204542 | 79 | 0 | 0.0 | 1.0 | 0.00 | 0.00 | 0.00 | 19 | 1011.1 |
| 20260505204029 | 78 | 0 | 0.0 | 1.0 | 0.00 | 0.00 | 0.00 | 20 | 1011.1 |
| 20260505203531 | 79 | 0 | 0.0 | 1.0 | 0.00 | 0.00 | 0.00 | 20 | 1011.3 |
| 20260505203045 | 80 | 0 | 0.0 | 3.0 | 0.00 | 0.00 | 0.00 | 20 | 1011.3 |
| 20260505202531 | 80 | 0 | 0.0 | 3.0 | 0.00 | 0.00 | 0.00 | 20 | 1011.3 |
| 20260505202032 | 80 | 0 | 0.0 | 3.0 | 0.00 | 0.00 | 0.00 | 19 | 1011.3 |
| 20260505201554 | 80 | 0 | 0.0 | 3.0 | 0.00 | 0.00 | 0.00 | 20 | 1011.1 |
| 20260505201030 | 79 | 0 | 0.0 | 2.0 | 0.00 | 0.00 | 0.00 | 20 | 1011.2 |
| 20260505200532 | 79 | 0 | 0.0 | 2.0 | 0.00 | 0.00 | 0.00 | 20 | 1011.3 |
| 20260505200056 | 79 | 0 | 0.0 | 3.0 | 0.00 | 0.00 | 0.00 | 19 | 1011.4 |
| 20260505195531 | 79 | 0 | 0.0 | 3.0 | 0.00 | 0.00 | 0.00 | 19 | 1011.4 |
| 20260505195029 | 79 | 254 | 0.0 | 3.0 | 0.00 | 0.00 | 0.00 | 19 | 1011.3 |
| 20260505194544 | 79 | 257 | 0.0 | 2.0 | 0.00 | 0.00 | 0.00 | 19 | 1011.5 |
| 20260505194032 | 79 | 0 | 0.0 | 3.0 | 0.00 | 0.00 | 0.00 | 19 | 1011.4 |
| 20260505193530 | 79 | 0 | 0.0 | 3.0 | 0.00 | 0.00 | 0.00 | 19 | 1011.4 |
| 20260505193042 | 79 | 0 | 0.0 | 3.0 | 0.00 | 0.00 | 0.00 | 20 | 1011.4 |
| 20260505192612 | 78 | 205 | 0.0 | 3.0 | 0.00 | 0.00 | 0.00 | 21 | 1011.4 |
| 20260505192032 | 78 | 0 | 0.0 | 2.0 | 0.00 | 0.00 | 0.00 | 21 | 1011.5 |
| 20260505191547 | 78 | 0 | 0.0 | 2.0 | 0.00 | 0.00 | 0.00 | 21 | 1011.5 |
| 20260505191031 | 78 | 0 | 0.0 | 1.0 | 0.00 | 0.00 | 0.00 | 21 | 1011.5 |
| 20260505190532 | 78 | 0 | 0.0 | 1.0 | 0.00 | 0.00 | 0.00 | 21 | 1011.6 |
| 20260505190046 | 77 | 0 | 0.0 | 1.0 | 0.00 | 0.00 | 0.00 | 21 | 1011.8 |
| 20260505185532 | 77 | 0 | 0.0 | 1.0 | 0.00 | 0.00 | 0.00 | 22 | 1011.8 |
| 20260505185031 | 77 | 0 | 0.0 | 7.0 | 0.00 | 0.00 | 0.00 | 23 | 1011.8 |
| 20260505184545 | 77 | 0 | 0.0 | 7.0 | 0.00 | 0.00 | 0.00 | 23 | 1011.8 |
| 20260505184031 | 76 | 0 | 0.0 | 2.0 | 0.00 | 0.00 | 0.00 | 23 | 1011.7 |
| 20260505183531 | 75 | 0 | 0.0 | 2.0 | 0.00 | 0.00 | 0.00 | 25 | 1011.9 |
| 20260505183048 | 75 | 0 | 0.0 | 3.0 | 0.00 | 0.00 | 0.00 | 24 | 1011.9 |
| 20260505182533 | 75 | 0 | 0.0 | 3.0 | 0.00 | 0.00 | 0.00 | 25 | 1012.1 |
| 20260505182031 | 75 | 0 | 0.0 | 3.0 | 0.00 | 0.00 | 0.00 | 25 | 1012.0 |
| 20260505181544 | 75 | 0 | 0.0 | 3.0 | 0.00 | 0.00 | 0.00 | 24 | 1012.1 |
| 20260505181033 | 75 | 203 | 0.0 | 1.0 | 0.00 | 0.00 | 0.00 | 25 | 1012.0 |
| 20260505180533 | 74 | 0 | 0.0 | 1.0 | 0.00 | 0.00 | 0.00 | 25 | 1012.1 |
| 20260505180041 | 74 | 0 | 0.0 | 1.0 | 0.00 | 0.00 | 0.00 | 26 | 1012.2 |
| 20260505175532 | 74 | 0 | 0.0 | 1.0 | 0.00 | 0.00 | 0.00 | 26 | 1012.2 |
| 20260505175032 | 74 | 0 | 0.0 | 1.0 | 0.00 | 0.00 | 0.00 | 27 | 1012.1 |
| 20260505174552 | 73 | 0 | 0.0 | 1.0 | 0.00 | 0.00 | 0.00 | 27 | 1012.1 |
| 20260505174032 | 73 | 0 | 0.0 | 0.0 | 0.00 | 0.00 | 0.00 | 27 | 1012.1 |
| 20260505173533 | 73 | 0 | 0.0 | 0.0 | 0.00 | 0.00 | 0.00 | 26 | 1012.1 |
| 20260505173048 | 73 | 0 | 0.0 | 0.0 | 0.00 | 0.00 | 0.00 | 27 | 1012.0 |
| 20260505172529 | 72 | 0 | 0.0 | 0.0 | 0.00 | 0.00 | 0.00 | 27 | 1012.0 |
| 20260505172029 | 72 | 0 | 0.0 | 0.0 | 0.00 | 0.00 | 0.00 | 27 | 1012.1 |
| 20260505171543 | 72 | 0 | 0.0 | 0.0 | 0.00 | 0.00 | 0.00 | 27 | 1012.0 |
| 20260505171029 | 72 | 0 | 0.0 | 0.0 | 0.00 | 0.00 | 0.00 | 29 | 1012.0 |
| 20260505170529 | 72 | 0 | 0.0 | 0.0 | 0.00 | 0.00 | 0.00 | 28 | 1012.0 |
| 20260505170043 | 72 | 0 | 0.0 | 0.0 | 0.00 | 0.00 | 0.00 | 28 | 1012.0 |
| 20260505165530 | 72 | 0 | 0.0 | 0.0 | 0.00 | 0.00 | 0.00 | 29 | 1011.9 |
| 20260505165031 | 71 | 0 | 0.0 | 0.0 | 0.00 | 0.00 | 0.00 | 29 | 1012.0 |
| 20260505164546 | 71 | 0 | 0.0 | 3.0 | 0.00 | 0.00 | 0.00 | 30 | 1012.0 |
| 20260505164032 | 70 | 0 | 0.0 | 3.0 | 0.00 | 0.00 | 0.00 | 30 | 1012.0 |
| 20260505163531 | 69 | 0 | 0.0 | 0.0 | 0.00 | 0.00 | 0.00 | 32 | 1012.0 |
| 20260505163045 | 69 | 0 | 0.0 | 0.0 | 0.00 | 0.00 | 0.00 | 31 | 1012.1 |
| 20260505162530 | 69 | 0 | 0.0 | 0.0 | 0.00 | 0.00 | 0.00 | 30 | 1012.1 |
| 20260505162029 | 69 | 0 | 0.0 | 0.0 | 0.00 | 0.00 | 0.00 | 31 | 1012.1 |
| 20260505161558 | 68 | 0 | 0.0 | 0.0 | 0.00 | 0.00 | 0.00 | 32 | 1012.2 |
| 20260505161029 | 68 | 0 | 0.0 | 0.0 | 0.00 | 0.00 | 0.00 | 31 | 1012.1 |
| 20260505160532 | 68 | 0 | 0.0 | 0.0 | 0.00 | 0.00 | 0.00 | 31 | 1012.2 |
| 20260505153048 | 67 | 0 | 0.0 | 0.0 | 0.00 | 0.00 | 0.00 | 34 | 1012.1 |
| 20260505152531 | 67 | 0 | 0.0 | 0.0 | 0.00 | 0.00 | 0.00 | 34 | 1012.1 |
| 20260505152033 | 67 | 0 | 0.0 | 0.0 | 0.00 | 0.00 | 0.00 | 34 | 1012.2 |
| 20260505151546 | 67 | 0 | 0.0 | 0.0 | 0.00 | 0.00 | 0.00 | 34 | 1012.2 |
| 20260505151031 | 67 | 0 | 0.0 | 0.0 | 0.00 | 0.00 | 0.00 | 34 | 1012.2 |
| 20260505150529 | 67 | 0 | 0.0 | 0.0 | 0.00 | 0.00 | 0.00 | 35 | 1012.1 |
| 20260505140529 | 65 | 0 | 0.0 | 0.0 | 0.00 | 0.00 | 0.00 | 40 | 1011.8 |
| 20260505125031 | 64 | 0 | 0.0 | 0.0 | 0.00 | 0.00 | 0.00 | 52 | 1011.3 |
| 20260505124548 | 64 | 0 | 0.0 | 0.0 | 0.00 | 0.00 | 0.00 | 52 | 1011.2 |